Regional Weather Roundup
Issued by NWS

Home | Current Version | Previous Version | Graphics & Text | Print | Product List | Glossary On
Versions: 1 2 3 4 5 6 7 8 9 10 11 12 13 14 15 16 17 18 19 20 21 22 23 24 25 26 27 28 29 30 31 32 33 34 35 36 37 38 39 40 41 42 43 44 45 46 47 48 49 50
000
ASUS43 KIND 221009
RWRIN

WEATHER ROUNDUP FOR INDIANA
NATIONAL WEATHER SERVICE INDIANAPOLIS IN
600 AM EDT FRI AUG 22 2014

NOTE: "FAIR" INDICATES FEW OR NO CLOUDS BELOW 12,000 FEET WITH NO
SIGNIFICANT WEATHER AND/OR OBSTRUCTIONS TO VISIBILITY.

* - STATION DOES NOT REPORT WEATHER SUCH AS PRECIPITATION OR FOG.

+ - STATION NOT QUALITY CONTROLLED BY THE NATIONAL WEATHER SERVICE.
    USE DATA WITH CAUTION...ESPECIALLY DEWPOINT AND RELATIVE
    HUMIDITY OBSERVATIONS.

INZ001>003-010>013-019-020-221100-
NORTHWEST INDIANA

CITY           SKY/WX    TMP DP  RH WIND       PRES   REMARKS
GARY /AIRPORT/ RAIN      73  72  94 S5        29.91F
KNOX *+        CLOUDY    70  68  92 CALM      29.90S
LA PORTE +     LGT RAIN  70  70 100 CALM      29.91F
MICHIGAN CITY+ LGT RAIN  70  70 100 SW5       29.91F
MONTICELLO +   HVY RAIN  71  70  98 NE10      29.94R
RENSSELAER +   CLOUDY    70  70 100 E8        29.93S
VALPARAISO     LGT RAIN  71  70  96 S6        29.92F

$$

LMZ046-743>745-221100-
SOUTHERN LAKE MICHIGAN

STATION/POSITION TIME  TEMP WIND        PRES
                       AIR  DIR/SP/G
                 (UTC) (F)  (DEG/KT/KT) (MB)
MICHIGAN CITY    1000   72  140/  5/  7   N/A

$$

INZ004-005-014>016-021>024-221100-
NORTH CENTRAL INDIANA

CITY           SKY/WX    TMP DP  RH WIND       PRES   REMARKS
GOSHEN         CLOUDY    72  69  90 E3        29.93F
LOGANSPORT +   HVY RAIN  70  68  94 NW5       29.97R
PERU/GRISSOM   TSTM      70  70 100 NW12      29.98R FOG
ROCHESTER +    TSTM      73  73 100 S3        29.95S
SOUTH BEND     CLOUDY    72  69  90 CALM      29.93F

$$

INZ006>009-017-018-025>027-221100-
NORTHEAST INDIANA

CITY           SKY/WX    TMP DP  RH WIND       PRES   REMARKS
ANGOLA *+      CLOUDY    70  61  73 SE3       29.96F
AUBURN +       CLOUDY    70  68  94 CALM      29.97F FOG
FORT WAYNE     TSTM      69  68  96 E14       29.95F FOG
HUNTINGTON +   TSTM      68  68  98 E8        29.95F

$$

INZ028-029-035-036-043>045-051>053-221100-
WEST CENTRAL INDIANA

CITY           SKY/WX    TMP DP  RH WIND       PRES   REMARKS
GREENCASTLE +  PTCLDY    73  72  94 S3        29.94F
LAFAYETTE      TSTM      75  74  96 N10       29.92R
TERRE HAUTE    MOCLDY    76  72  87 SW8       29.94S

$$

INZ030>032-037>040-046>048-054>057-064-065-221100-
CENTRAL INDIANA

CITY           SKY/WX    TMP DP  RH WIND       PRES   REMARKS
CP ATTERBURY + PTCLDY    72  70  94 S3        29.96S
FRANKFORT +    CLOUDY   N/A N/A N/A SW6       29.94S
INDIANAPOLIS   MOCLDY    75  72  90 SW10      29.93F
-EAGLE CREEK   MOCLDY    75  72  90 SW6       29.92F
KOKOMO *+      CLOUDY    72  70  94 CALM      29.94S
MARION +       LGT RAIN  70  68  95 E7        29.98R
MT COMFORT *+  CLOUDY    72 N/A N/A S3        29.94F
SHELBYVILLE    MOCLDY    75  32  20 S7        29.95F
ZIONSVILLE +   CLOUDY    75  72  88 S6        29.94F

$$

INZ033-034-041-042-049-050-058-059-221100-
EAST CENTRAL INDIANA

CITY           SKY/WX    TMP DP  RH WIND       PRES   REMARKS
MUNCIE         CLOUDY    72  69  90 VRB3      29.97F

$$

INZ060-061-067>069-081>083-085>088-221100-
SOUTHWEST INDIANA

CITY           SKY/WX    TMP DP  RH WIND       PRES   REMARKS
EVANSVILLE     CLEAR     76  72  87 SW5       29.98R
WASHINGTON +   PTCLDY    76  73  90 SW8       29.96R

$$

INZ062-063-066-070>080-084-089>092-221100-
SOUTH CENTRAL AND SOUTHEAST INDIANA

CITY           SKY/WX    TMP DP  RH WIND       PRES   REMARKS
BEDFORD +      CLEAR     75  70  83 SW3       29.98
BLOOMINGTON    CLEAR     76  72  87 SW10      29.97S
NORTH VERNON + CLEAR     73  73 100 S6        29.98

$$



USA.gov is the U.S. government's official web portal to all federal, state and local government web resources and services.